TimeCST,TemperatureF,Dew PointF,Humidity,Sea Level PressureIn,VisibilityMPH,Wind Direction,Wind SpeedMPH,Gust SpeedMPH,PrecipitationIn,Events,Conditions,WindDirDegrees,DateUTC
12:53 AM,16.0,10.0,77,30.33,7.0,Variable,3.5,-,0.00,,Overcast,0,2012-11-24 06:53:00
1:53 AM,16.0,10.0,77,30.32,8.0,Calm,Calm,-,0.00,Snow,Light Snow,0,2012-11-24 07:53:00
2:53 AM,16.0,10.0,77,30.32,6.0,Calm,Calm,-,0.00,Snow,Light Snow,0,2012-11-24 08:53:00
3:53 AM,15.1,10.0,80,30.32,8.0,Calm,Calm,-,0.00,,Overcast,0,2012-11-24 09:53:00
4:53 AM,15.1,10.0,80,30.30,7.0,Calm,Calm,-,0.00,,Overcast,0,2012-11-24 10:53:00
5:53 AM,15.1,10.0,80,30.31,9.0,West,3.5,-,0.00,,Overcast,270,2012-11-24 11:53:00
6:03 AM,15.8,10.4,79,30.23,9.0,Calm,Calm,-,N/A,,Overcast,0,2012-11-24 12:03:00
6:53 AM,14.0,10.0,84,30.30,9.0,West,3.5,-,0.00,Snow,Light Snow,270,2012-11-24 12:53:00
7:53 AM,15.1,10.9,84,30.29,6.0,SSW,3.5,-,0.00,,Overcast,200,2012-11-24 13:53:00
8:53 AM,15.1,9.0,77,30.27,5.0,South,4.6,-,0.00,Snow,Light Snow,180,2012-11-24 14:53:00
9:53 AM,15.1,10.0,80,30.27,8.0,Calm,Calm,-,0.00,,Overcast,0,2012-11-24 15:53:00
10:53 AM,17.1,10.0,74,30.23,10.0,Variable,4.6,-,N/A,,Overcast,0,2012-11-24 16:53:00
11:53 AM,19.9,12.0,71,30.19,10.0,Variable,4.6,-,N/A,,Mostly Cloudy,0,2012-11-24 17:53:00
12:11 PM,19.4,10.4,68,30.09,10.0,South,6.9,-,N/A,,Scattered Clouds,180,2012-11-24 18:11:00
12:53 PM,21.0,12.0,68,30.14,10.0,SSW,4.6,-,N/A,,Clear,200,2012-11-24 18:53:00
1:53 PM,21.9,12.0,66,30.09,10.0,Calm,Calm,-,N/A,,Overcast,0,2012-11-24 19:53:00
2:53 PM,23.0,12.9,65,30.05,10.0,South,3.5,-,N/A,,Overcast,190,2012-11-24 20:53:00
3:53 PM,23.0,12.9,65,30.05,10.0,Calm,Calm,-,N/A,,Overcast,0,2012-11-24 21:53:00
4:53 PM,21.9,12.0,66,30.01,10.0,SE,4.6,-,N/A,,Overcast,140,2012-11-24 22:53:00
5:53 PM,23.0,12.9,65,29.96,10.0,SE,8.1,-,N/A,,Overcast,140,2012-11-24 23:53:00
6:46 PM,23.0,14.0,68,29.86,4.0,SSE,6.9,-,0.00,Snow,Light Snow,150,2012-11-25 00:46:00
6:53 PM,23.0,14.0,68,29.94,5.0,South,8.1,-,0.00,Snow,Light Snow,170,2012-11-25 00:53:00
7:05 PM,23.0,15.8,74,29.86,9.0,SE,8.1,-,0.00,,Overcast,140,2012-11-25 01:05:00
7:53 PM,24.1,15.1,69,29.92,10.0,South,6.9,-,0.00,,Overcast,170,2012-11-25 01:53:00
8:17 PM,23.0,15.8,74,29.86,2.0,Variable,4.6,-,0.00,Snow,Light Snow,0,2012-11-25 02:17:00
8:25 PM,23.0,17.6,80,29.86,1.5,Variable,4.6,-,0.00,Snow,Light Snow,0,2012-11-25 02:25:00
8:34 PM,23.0,17.6,80,29.86,0.8,Calm,Calm,-,0.00,Snow,Light Snow,0,2012-11-25 02:34:00
8:42 PM,23.0,17.6,80,29.86,0.8,Calm,Calm,-,0.01,Snow,Light Snow,0,2012-11-25 02:42:00
8:53 PM,21.9,19.0,89,29.92,0.8,South,3.5,-,0.04,Snow,Light Snow,190,2012-11-25 02:53:00
9:34 PM,21.2,19.4,93,29.83,1.0,South,4.6,-,0.03,Snow,Light Snow,180,2012-11-25 03:34:00
9:53 PM,23.0,19.0,85,29.88,1.0,South,6.9,-,0.04,Snow,Light Snow,190,2012-11-25 03:53:00
10:03 PM,23.0,19.4,86,29.82,0.8,Calm,Calm,-,0.01,Snow,Light Snow,0,2012-11-25 04:03:00
10:12 PM,23.0,19.4,86,29.81,1.0,Calm,Calm,-,0.01,Snow,Light Snow,0,2012-11-25 04:12:00
10:24 PM,23.0,19.4,86,29.81,0.8,South,4.6,-,0.02,Snow,Light Snow,180,2012-11-25 04:24:00
10:30 PM,23.0,19.4,86,29.81,1.0,South,4.6,-,0.02,Snow,Light Snow,190,2012-11-25 04:30:00
10:38 PM,23.0,19.4,86,29.80,1.8,Variable,4.6,-,0.02,Snow,Light Snow,0,2012-11-25 04:38:00
10:43 PM,23.0,19.4,86,29.80,3.0,South,4.6,-,0.02,Snow,Light Snow,190,2012-11-25 04:43:00
10:51 PM,23.0,19.4,86,29.80,4.0,South,3.5,-,0.02,Snow,Light Snow,190,2012-11-25 04:51:00
10:53 PM,23.0,19.9,88,29.86,5.0,South,3.5,-,0.02,Snow,Light Snow,190,2012-11-25 04:53:00
11:53 PM,24.1,19.9,84,29.85,10.0,Calm,Calm,-,0.00,,Overcast,0,2012-11-25 05:53:00